Hourly Data Report for October 28, 2016

All times are specified in Local Standard Time (LST). Add 1 hour to adjust for Daylight Saving Time where and when it is observed.

PANGNIRTUNG
NUNAVUT

66°08'36.300" N
65°42'40.500" W
22.60 m
2403049
71826
WXP

Download Data

Hourly Data (October 2016)
Hourly Data Report for October 28, 2016
Temp Definition
°C
Dew Point Temp Definition
°C
Rel Hum Definition
%
Wind Dir Definition
10's deg

Wind Spd Definition
km/h
Visibility Definition
km
Stn Press Definition
kPa
Hmdx Definition


Wind Chill Definition


Weather Definition


TIME
00:00 -6.8 -12.4 65 15 17   100.82   -13 LegendNANA
01:00 -9.1 -13.6 70 10 15   100.81   -16 LegendNANA
02:00 -6.4 -11.1 69 8 8   100.83   -10 LegendNANA
03:00 -5.5 -11.0 65 7 8   100.84   -9 LegendNANA
04:00 -5.8 -10.1 72 11 4   100.85   -8 LegendNANA
05:00 -5.3 -9.7 71 8 6   100.85   -8 LegendNANA
06:00 -4.8 -8.8 74 11 5   100.87   -7 LegendNANA
07:00 -5.1 -7.2 86 6 7   100.87   -8 LegendNANA
08:00 -5.6 -6.9 91 12 8   100.85   -9 LegendNANA
09:00 -5.4 -6.2 94 10 10   100.85   -10 LegendNANA
10:00 -5.4 -6.2 94 9 9   100.85   -9 LegendNANA
11:00 -4.8 -5.8 93 7 11   100.83   -9 LegendNANA
12:00 -5.0 -6.0 93 6 13   100.81   -10 LegendNANA
13:00 -4.5 -5.8 91 5 9   100.79   -8 LegendNANA
14:00 -3.7 -5.4 88 5 13   100.72   -9 LegendNANA
15:00 -2.7 -5.6 80 10 22   100.67   -9 LegendNANA
16:00 -2.6 -5.5 80 10 34   100.62   -10 LegendNANA
17:00 -2.3 -5.4 79 8 24   100.55   -9 LegendNANA
18:00 -2.7 -4.5 87 9 19   100.51   -8 LegendNANA
19:00 -2.4 -4.7 84 8 14   100.43   -7 LegendNANA
20:00 -2.2 -4.0 88 8 21   100.37   -8 LegendNANA
21:00 -2.3 -3.5 92 9 29   100.29   -9 LegendNANA
22:00 -1.6 -3.8 85 9 29   100.23   -8 LegendNANA
23:00 -2.3 -4.0 89 10 35   100.17   -10 LegendNANA

Notes on Data Quality.

Legend

  • E = Estimated
  • M = Missing
  • NA = Not Available
  • ‡ = Partner data that is not subject to review by the National Climate Archives
Date modified: